Weather in Orhei

Moldova     47°22′29″N   28°49′20″E
temp.,
°C
wind,
m/s
gust,
m/s
humid.,
%
clouds,
%
prec.,
mm/h
press.,
hPa
HPBL,
m
13 may, thu
thu1300:00+10ese247478 0.1 101298
03:00+9s3586100 0.3 1011301
06:00+9se3686100 0.1 1010284
09:00+12sse6106992 0.1 1009695
12:00+16sse71056100 0.0 10081162
15:00+11sse51188100 0.6 1009589
18:00+14se6117397 0.1 1007621
21:00+13se6127843 0.1 1007452
14 may, fri
fri1400:00+9se4109012 0.0 1007278
03:00+8se310928 0.0 1007231
06:00+8se3490100 0.0 100685
09:00+10sse2690100 1.1 1006237
12:00+14sw478593 1.1 1007663
15:00+18wsw566563 1.6 10071310
18:00+16w677337 0.5 1008968
21:00+12sw118482 0.5 100910
15 may, sat
sat1500:00+11ssw11844 0.0 101010
03:00+11wsw11853 0.0 101110
06:00+10sse00825 0.0 101110
09:00+16sse11642 0.0 1012332
12:00+20s12511 0.0 10121496
15:00+22ssw2341100 0.0 10112407
18:00+21wnw1248100 0.0 1011589
21:00+16se226718 0.0 101115
16 may, sun
sun1600:00+14s22775 0.0 101113
03:00+13se22835 0.0 101220
06:00+12ese22857 0.0 101213
09:00+17ese3566100 0.0 1012403
12:00+21ese455356 0.0 10111059
15:00+23se4546100 0.0 10101912
18:00+22sse2453100 0.0 1009462
21:00+19ssw1160100 0.0 100811
17 may, mon
mon1700:00+18nnw1262100 0.1 100811
03:00+17nne2265100 0.1 100737
06:00+15nne2283100 0.5 100740
09:00+16nne2587100 0.9 1008447
12:00+17nne237767 0.0 1008409
15:00+20nw226256 0.1 1008935
18:00+21nnw226020 0.5 10071077
21:00+16ene11804 1.4 100811